EDT,Max TemperatureF,Mean TemperatureF,Min TemperatureF,Max Dew PointF,MeanDew PointF,Min DewpointF,Max Humidity, Mean Humidity, Min Humidity, Max Sea Level PressureIn, Mean Sea Level PressureIn, Min Sea Level PressureIn, Max VisibilityMiles, Mean VisibilityMiles, Min VisibilityMiles, Max Wind SpeedMPH, Mean Wind SpeedMPH, Max Gust SpeedMPH,PrecipitationIn, CloudCover, Events, WindDirDegrees
2012-10-1,84,76,68,79,74,68,100,97,79,29.87,29.83,29.80,10,7,0,9,2,,0.25,5,Fog-Rain-Thunderstorm,140
2012-10-2,86,80,73,81,77,73,100,92,70,30.02,29.88,29.79,10,9,3,18,7,24,0.10,4,Rain-Thunderstorm,177
2012-10-3,86,80,73,77,73,64,100,88,48,30.21,30.11,30.02,10,10,7,8,3,,0.05,4,Rain,205
2012-10-4,84,76,69,73,71,70,100,91,66,30.24,30.21,30.17,10,10,7,9,1,,0.02,3,Rain,307
2012-10-5,82,73,64,72,67,63,100,86,51,30.20,30.12,30.04,10,9,4,10,2,,0.00,0,,70
2012-10-6,82,71,60,72,67,61,100,88,58,30.05,29.98,29.90,10,10,7,10,1,,0.00,1,,191
2012-10-7,86,75,62,77,70,61,100,90,55,30.08,29.98,29.93,10,8,0,14,2,20,0.47,4,Fog-Rain-Thunderstorm,255
2012-10-8,64,58,51,63,58,52,100,97,88,30.13,30.08,30.04,10,9,1,13,7,22,0.63,8,Rain-Thunderstorm,9
2012-10-9,60,56,51,57,54,52,100,98,88,30.14,30.11,30.07,10,9,2,10,4,,0.00,8,,328
2012-10-10,73,60,46,61,56,46,100,89,61,30.15,30.10,30.02,10,10,7,13,3,18,0.00,1,,271
2012-10-11,71,61,51,55,53,46,100,83,49,30.29,30.22,30.13,10,9,2,13,3,18,0.00,0,,48
2012-10-12,77,62,46,63,55,46,100,88,47,30.27,30.22,30.16,10,10,10,6,1,,0.00,0,,346
2012-10-13,71,63,55,61,56,52,100,81,60,30.39,30.33,30.27,10,10,10,17,8,23,0.00,1,,43
2012-10-14,80,66,51,70,60,52,100,87,48,30.31,30.20,30.07,10,10,10,10,2,,0.00,0,,104
2012-10-15,80,70,59,73,66,59,100,92,65,30.06,29.90,29.77,10,10,3,14,2,17,0.00,3,,232
2012-10-16,71,61,51,64,51,46,100,74,41,29.98,29.92,29.85,10,10,10,15,5,18,0.00,0,,6
2012-10-17,71,60,50,61,55,50,100,88,60,30.02,29.96,29.93,10,10,7,9,1,,0.00,0,,60
2012-10-18,78,66,53,70,63,54,100,93,61,29.93,29.87,29.82,10,10,10,12,2,,0.00,3,,188
2012-10-19,77,64,51,70,59,48,100,79,36,29.86,29.81,29.76,10,10,5,13,4,16,0.27,2,Rain-Thunderstorm,263
2012-10-20,73,60,46,55,51,45,100,80,36,29.95,29.87,29.82,10,10,10,14,5,17,0.00,0,,259
2012-10-21,71,60,48,54,49,45,100,75,41,30.16,30.08,29.94,10,10,10,12,4,16,0.00,0,,10
2012-10-22,73,58,42,54,47,43,100,78,38,30.25,30.19,30.16,10,10,10,9,2,,0.00,0,,76
2012-10-23,75,60,44,63,54,45,100,86,57,30.22,30.17,30.13,10,10,3,10,2,,0.00,0,,99
2012-10-24,80,66,51,70,59,52,100,88,54,30.20,30.15,30.11,10,8,0,10,1,,0.00,1,Fog,79
2012-10-25,80,70,59,72,66,59,100,91,65,30.12,30.09,30.05,10,8,1,15,4,23,0.00,1,,63
2012-10-26,77,70,62,68,64,61,100,85,65,30.04,29.92,29.79,10,10,10,18,9,25,0.00,2,,21
2012-10-27,68,65,62,66,63,59,100,96,83,29.78,29.61,29.53,10,10,7,18,14,29,0.48,8,Rain,356
2012-10-28,69,63,57,59,55,54,88,75,56,29.60,29.56,29.53,10,10,10,17,12,25,0.00,2,,322
2012-10-29,60,53,46,52,42,34,88,64,42,29.62,29.58,29.50,10,10,10,18,11,30,0.00,2,,291
2012-10-30,57,48,39,41,36,34,100,66,47,29.74,29.59,29.52,10,10,10,15,11,23,0.00,4,,246
2012-10-31,62,50,37,45,36,32,93,67,39,29.84,29.78,29.73,10,10,10,16,8,24,0.00,0,,245